Precipitable_Water
1.34 1.34 1.27 1.29 1.33 1.37 1.38 1.46 1.52 1.68 1.80 1.84 1.87 1.79 1.76 1.77 1.80 1.78 1.75 1.81 1.81 1.82 1.89 1.88 1.83 1.93 1.90 1.90 1.90 1.86 1.76 1.76 1.60 1.66 1.78 1.86 1.84 1.88 1.89 1.92 1.97 1.85 1.78
1.31 1.33 1.29 1.33 1.32 1.28 1.38 1.39 1.48 1.55 1.79 1.92 1.89 1.85 1.79 1.81 1.81 1.83 1.86 1.89 1.86 1.86 1.91 1.91 1.87 1.94 1.93 1.92 1.87 1.80 1.79 1.81 1.73 1.55 1.69 1.73 1.77 1.87 1.84 1.83 1.78 1.74 1.76
1.41 1.39 1.35 1.30 1.29 1.28 1.30 1.46 1.37 1.49 1.60 1.84 1.87 1.83 1.81 1.81 1.83 1.86 1.85 1.83 1.83 1.86 1.86 1.85 1.82 1.80 1.77 1.80 1.81 1.78 1.79 1.79 1.78 1.68 1.63 1.74 1.75 1.81 1.71 1.65 1.53 1.63 1.61
1.50 1.41 1.34 1.30 1.32 1.33 1.33 1.34 1.39 1.43 1.48 1.51 1.65 1.76 1.81 1.82 1.84 1.84 1.82 1.81 1.82 1.81 1.82 1.82 1.82 1.79 1.74 1.73 1.73 1.73 1.75 1.70 1.67 1.59 1.58 1.59 1.63 1.67 1.63 1.53 1.47 1.55 1.49
1.55 1.45 1.37 1.34 1.37 1.44 1.38 1.31 1.24 1.33 1.43 1.49 1.47 1.43 1.51 1.61 1.71 1.74 1.77 1.79 1.79 1.78 1.80 1.80 1.81 1.82 1.81 1.80 1.75 1.70 1.68 1.62 1.56 1.52 1.51 1.53 1.56 1.55 1.50 1.52 1.44 1.44 1.45
1.57 1.51 1.44 1.38 1.44 1.43 1.44 1.40 1.32 1.35 1.41 1.44 1.42 1.42 1.41 1.43 1.42 1.45 1.48 1.49 1.55 1.60 1.63 1.70 1.76 1.77 1.76 1.74 1.72 1.72 1.69 1.59 1.53 1.50 1.49 1.44 1.47 1.52 1.58 1.56 1.44 1.30 1.18
1.52 1.52 1.38 1.38 1.49 1.42 1.42 1.44 1.39 1.43 1.43 1.34 1.29 1.26 1.20 1.24 1.31 1.35 1.39 1.39 1.37 1.39 1.43 1.45 1.53 1.65 1.67 1.66 1.65 1.64 1.62 1.64 1.65 1.58 1.45 1.45 1.42 1.48 1.48 1.43 1.42 1.38 1.33
1.48 1.47 1.40 1.33 1.34 1.41 1.44 1.45 1.44 1.41 1.31 1.17 1.09 1.09 1.13 1.22 1.29 1.32 1.35 1.36 1.32 1.34 1.34 1.32 1.32 1.30 1.28 1.22 1.17 1.15 1.19 1.26 1.34 1.46 1.46 1.42 1.40 1.42 1.44 1.37 1.36 1.33 1.31
1.42 1.40 1.34 1.30 1.33 1.33 1.35 1.37 1.42 1.35 1.25 1.16 1.12 1.15 1.18 1.23 1.23 1.23 1.25 1.19 1.19 1.20 1.23 1.23 1.20 1.11 1.06 1.06 1.02 1.00 1.02 0.99 1.04 1.06 1.10 1.14 1.12 1.12 1.14 1.09 1.04 1.04 0.99
1.20 1.32 1.40 1.33 1.29 1.31 1.34 1.45 1.43 1.36 1.23 1.20 1.20 1.27 1.27 1.26 1.28 1.24 1.23 1.20 1.15 1.14 1.17 1.16 1.13 1.14 1.10 1.10 1.06 1.01 0.97 1.04 1.08 1.09 1.14 1.09 1.06 1.06 1.08 1.05 1.00 0.92 0.93
1.21 1.24 1.31 1.33 1.30 1.33 1.39 1.44 1.45 1.34 1.25 1.21 1.21 1.23 1.27 1.31 1.28 1.29 1.26 1.24 1.20 1.15 1.14 1.15 1.20 1.19 1.16 1.14 1.12 1.13 1.13 1.18 1.16 1.17 1.13 1.12 1.11 1.11 1.11 1.11 1.11 1.08 1.04
1.20 1.22 1.31 1.31 1.41 1.45 1.48 1.44 1.46 1.38 1.28 1.21 1.17 1.15 1.22 1.30 1.29 1.31 1.25 1.19 1.19 1.13 1.12 1.14 1.17 1.18 1.17 1.18 1.18 1.17 1.15 1.14 1.12 1.07 1.03 0.97 0.96 0.95 0.94 0.94 0.90 0.86 0.83
1.17 1.18 1.18 1.25 1.31 1.48 1.45 1.37 1.44 1.37 1.25 1.20 1.12 1.12 1.16 1.21 1.27 1.26 1.27 1.27 1.22 1.15 1.15 1.15 1.12 1.08 1.06 1.03 1.00 0.94 0.91 0.91 0.84 0.77 0.71 0.65 0.55 0.52 0.46 0.41 0.38 0.37 0.40
1.13 1.23 1.16 1.22 1.29 1.46 1.42 1.43 1.36 1.29 1.20 1.09 1.07 1.09 1.11 1.17 1.18 1.20 1.18 1.14 1.10 1.04 1.00 0.94 0.90 0.82 0.78 0.71 0.60 0.46 0.41 0.39 0.36 0.34 0.34 0.36 0.34 0.32 0.30 0.31 0.30 0.31 0.30
1.14 1.18 1.17 1.21 1.25 1.32 1.30 1.24 1.21 1.17 1.10 1.05 1.06 1.06 1.03 1.04 1.06 1.07 1.03 0.92 0.78 0.66 0.59 0.51 0.44 0.39 0.37 0.37 0.36 0.36 0.37 0.37 0.37 0.37 0.35 0.35 0.34 0.34 0.31 0.32 0.33 0.32 0.31
1.10 1.10 1.09 1.05 1.02 1.03 1.00 0.93 0.89 0.88 0.89 0.89 0.88 0.85 0.83 0.83 0.77 0.65 0.56 0.47 0.42 0.42 0.38 0.34 0.33 0.34 0.34 0.35 0.36 0.34 0.36 0.37 0.37 0.36 0.36 0.35 0.33 0.31 0.30 0.31 0.33 0.32 0.31
0.99 0.94 0.90 0.86 0.81 0.78 0.76 0.75 0.75 0.76 0.72 0.58 0.49 0.44 0.41 0.40 0.41 0.40 0.38 0.39 0.39 0.38 0.34 0.34 0.34 0.35 0.35 0.35 0.35 0.34 0.33 0.33 0.35 0.36 0.35 0.32 0.31 0.30 0.29 0.30 0.32 0.33 0.32
0.77 0.76 0.73 0.73 0.74 0.75 0.73 0.68 0.59 0.48 0.38 0.31 0.35 0.36 0.36 0.37 0.37 0.36 0.37 0.39 0.37 0.38 0.34 0.32 0.33 0.34 0.35 0.34 0.34 0.32 0.31 0.31 0.32 0.31 0.30 0.30 0.29 0.28 0.27 0.28 0.29 0.31 0.33
0.67 0.61 0.59 0.58 0.55 0.51 0.47 0.44 0.42 0.39 0.35 0.32 0.32 0.34 0.36 0.36 0.36 0.37 0.38 0.35 0.32 0.31 0.32 0.31 0.31 0.30 0.30 0.29 0.30 0.30 0.30 0.31 0.30 0.29 0.28 0.28 0.27 0.26 0.26 0.28 0.29 0.31 0.35
0.62 0.59 0.57 0.54 0.54 0.51 0.50 0.48 0.45 0.43 0.41 0.39 0.35 0.32 0.34 0.35 0.34 0.33 0.32 0.31 0.31 0.31 0.32 0.30 0.30 0.30 0.30 0.29 0.29 0.29 0.28 0.29 0.29 0.29 0.30 0.30 0.25 0.27 0.27 0.27 0.28 0.29 0.33
0.68 0.67 0.64 0.63 0.60 0.57 0.55 0.52 0.49 0.46 0.44 0.42 0.38 0.39 0.38 0.35 0.34 0.34 0.32 0.32 0.31 0.31 0.31 0.31 0.31 0.29 0.29 0.29 0.29 0.27 0.27 0.28 0.29 0.31 0.33 0.29 0.27 0.24 0.29 0.30 0.31 0.33 0.37
0.73 0.69 0.67 0.66 0.65 0.64 0.61 0.59 0.55 0.52 0.49 0.44 0.32 0.34 0.36 0.33 0.33 0.32 0.32 0.32 0.34 0.33 0.32 0.30 0.29 0.29 0.30 0.29 0.29 0.28 0.28 0.29 0.31 0.32 0.32 0.33 0.32 0.28 0.30 0.32 0.33 0.34 0.36
0.77 0.73 0.71 0.70 0.69 0.67 0.63 0.62 0.55 0.50 0.44 0.37 0.32 0.31 0.31 0.32 0.32 0.33 0.34 0.34 0.34 0.33 0.32 0.32 0.30 0.30 0.32 0.33 0.33 0.32 0.29 0.29 0.31 0.32 0.31 0.30 0.27 0.29 0.32 0.32 0.31 0.29 0.30
0.80 0.74 0.70 0.70 0.69 0.65 0.60 0.58 0.52 0.47 0.42 0.39 0.35 0.34 0.33 0.33 0.33 0.34 0.34 0.35 0.34 0.32 0.33 0.32 0.30 0.30 0.31 0.30 0.27 0.27 0.29 0.29 0.28 0.27 0.22 0.19 0.23 0.29 0.33 0.33 0.30 0.27 0.27
0.65 0.58 0.60 0.64 0.64 0.60 0.57 0.56 0.51 0.47 0.45 0.42 0.38 0.35 0.34 0.34 0.34 0.34 0.35 0.35 0.34 0.33 0.33 0.32 0.31 0.33 0.30 0.27 0.28 0.27 0.25 0.23 0.21 0.18 0.15 0.15 0.19 0.27 0.30 0.28 0.27 0.26 0.28
0.61 0.57 0.59 0.62 0.62 0.60 0.56 0.54 0.52 0.51 0.47 0.44 0.41 0.39 0.36 0.35 0.35 0.35 0.35 0.34 0.34 0.35 0.33 0.34 0.35 0.37 0.33 0.32 0.34 0.34 0.31 0.26 0.24 0.26 0.25 0.18 0.23 0.25 0.27 0.28 0.27 0.28 0.32
Wind_Speed
3 6 8 10 11 11 12 12 11 9 8 4 2 1 4 7 10 12 14 15 17 17 18 19 21 21 20 20 19 18 19 17 18 18 18 17 16 17 16 17 16 16 17
5 6 7 9 10 10 9 10 11 10 8 7 7 5 4 5 7 8 10 11 12 14 15 16 19 20 18 18 19 18 20 20 20 20 19 18 18 17 17 14 16 16 17
5 6 6 8 8 8 7 8 8 9 9 7 6 6 6 6 6 6 7 8 8 10 13 14 16 17 17 18 18 18 16 17 16 17 18 19 19 18 18 17 17 17 17
5 6 6 7 7 6 5 5 6 7 7 8 8 6 5 5 4 4 4 5 6 7 8 9 11 14 14 15 15 16 17 16 18 20 20 19 18 19 19 18 18 17 17
6 7 7 6 6 4 4 4 4 4 5 5 6 6 6 5 2 1 2 4 6 7 8 9 10 11 12 16 17 16 17 18 20 19 21 20 20 20 19 19 19 18 18
8 8 7 6 4 4 3 2 2 3 3 4 4 4 4 3 2 1 1 2 3 5 6 9 13 13 14 14 15 17 18 20 19 19 19 20 20 20 20 19 18 18 19
11 10 8 6 4 3 1 0 2 3 2 3 3 3 3 3 3 2 2 3 4 4 5 6 7 8 10 12 12 13 14 15 17 20 19 17 16 16 17 17 19 20 19
11 11 9 7 5 3 2 2 1 0 2 4 5 5 4 4 3 3 4 3 3 4 5 6 6 7 7 8 9 9 9 10 10 11 13 15 15 15 16 17 18 19 20
13 12 10 8 6 5 4 3 3 1 3 5 6 6 5 4 4 5 4 4 4 5 5 6 7 8 9 10 10 10 10 10 10 10 11 12 13 15 18 20 20 23 24
13 11 10 9 8 7 6 5 4 4 5 6 7 7 6 6 8 8 8 7 6 7 7 8 8 9 10 11 12 12 13 14 14 15 15 15 17 18 19 21 24 26 27
11 10 10 10 10 9 8 7 7 6 7 8 9 9 9 10 10 10 10 9 8 7 7 8 9 9 10 12 13 14 15 16 16 17 18 18 20 21 22 23 25 27 30
9 8 8 10 12 12 11 11 10 9 10 10 11 12 12 11 9 8 8 9 9 9 10 10 11 11 12 13 13 14 15 16 17 18 19 21 22 23 24 25 26 26 26
7 7 8 9 11 13 11 11 10 11 12 13 13 12 10 9 9 9 9 9 10 11 11 11 10 12 13 13 14 15 16 17 17 18 20 21 22 23 25 26 27 28 28
6 5 7 9 10 10 11 10 11 11 12 12 11 10 9 8 8 8 8 8 9 9 9 10 11 11 12 12 13 15 16 17 19 20 22 23 24 25 27 28 28 29 29
5 5 5 6 8 8 8 9 11 12 12 10 9 9 8 8 8 8 8 8 8 9 10 11 12 13 14 15 15 17 18 19 20 21 22 24 25 27 28 29 29 29 29
5 6 6 7 8 9 10 10 9 9 8 8 8 8 8 7 7 7 7 8 9 10 10 12 13 14 14 15 16 18 19 21 21 22 24 25 26 27 29 29 29 28 29
4 5 5 6 6 6 7 7 7 7 7 7 7 7 7 7 7 7 9 9 10 11 11 11 13 14 15 17 19 20 22 23 24 25 26 27 28 29 29 29 28 28 29
4 4 4 4 5 5 5 6 6 7 7 7 7 7 7 7 8 8 9 9 9 11 11 13 14 16 18 20 22 24 24 24 25 25 26 27 28 28 27 27 27 26 25
5 5 5 5 5 5 5 5 5 5 6 6 7 7 7 7 7 8 9 9 11 13 14 16 17 19 21 22 23 24 24 24 24 25 25 26 27 25 24 23 23 22 22
7 7 7 8 8 8 8 8 7 8 8 7 7 7 7 8 8 9 10 12 14 15 17 18 19 20 21 22 24 23 23 23 23 23 24 24 22 21 20 20 20 20 19
10 10 10 10 11 11 11 10 10 10 10 10 9 9 9 9 11 12 13 15 17 18 19 19 20 20 20 21 22 22 21 20 20 20 20 19 18 18 16 16 16 15 14
10 10 10 10 10 11 11 12 11 11 11 10 10 10 10 12 12 13 15 17 18 19 19 19 19 19 19 20 20 19 19 18 18 18 18 17 17 15 13 12 11 10 9
12 12 12 12 12 12 12 11 11 11 10 10 10 10 11 12 14 16 17 17 18 18 17 17 18 17 18 18 18 18 17 16 16 16 15 15 14 11 10 9 8 7 7
11 13 15 14 13 13 12 11 11 11 12 12 12 13 14 15 16 17 17 18 17 17 17 16 16 16 16 16 15 14 14 14 14 14 14 11 10 8 8 6 6 7 6
13 13 14 14 14 14 13 13 12 12 13 14 15 16 17 17 18 18 18 18 17 17 16 14 14 14 14 12 13 13 12 13 13 12 11 10 7 6 6 6 5 5 4
14 14 14 14 14 15 16 16 16 16 16 17 18 19 19 19 19 19 19 18 17 16 14 13 14 14 13 12 12 12 12 11 11 10 10 7 5 5 5 6 5 4 4
Wind_Direction
355 359 5 9 16 20 24 26 30 26 31 43 54 196 218 216 214 212 215 217 219 222 225 225 225 226 229 233 234 238 245 247 250 254 250 253 255 255 256 258 255 248 254
329 334 341 355 5 12 16 22 28 33 39 55 76 79 112 151 176 189 194 204 210 217 221 225 226 230 229 231 239 248 248 249 253 252 249 252 256 255 259 250 250 254 255
334 336 332 343 357 8 16 22 29 38 49 63 74 77 100 117 138 159 179 196 210 224 226 226 227 227 235 239 243 245 250 251 250 248 252 257 256 252 254 256 252 255 252
319 336 332 336 343 356 10 16 26 40 58 63 68 77 92 105 129 150 177 197 213 219 214 222 229 231 237 242 245 248 252 252 257 257 259 255 254 256 255 254 250 255 250
303 323 329 333 338 348 359 14 28 48 61 65 65 70 76 81 94 162 214 224 228 231 230 235 241 243 248 249 256 258 259 256 260 263 258 256 257 254 255 252 254 252 252
284 303 316 318 320 335 342 12 57 74 71 61 55 52 51 44 37 53 251 249 242 241 246 253 253 253 257 255 257 267 264 261 262 261 259 260 260 261 256 254 250 247 253
277 286 297 300 291 314 282 68 89 91 67 36 14 358 353 347 343 337 308 280 266 261 260 265 258 258 256 255 263 269 272 270 266 261 262 261 260 258 253 257 253 254 255
285 279 277 280 271 270 232 203 152 39 354 341 335 331 328 319 314 321 324 301 289 279 276 274 264 263 260 260 268 273 278 279 277 265 259 261 262 262 260 260 255 254 259
289 274 265 264 247 240 228 222 226 285 317 331 327 324 319 307 300 305 302 305 306 295 288 284 275 272 270 271 271 274 275 278 279 275 271 269 270 271 267 265 266 263 265
288 274 256 246 234 232 230 236 240 283 302 313 322 319 312 299 296 290 285 284 295 289 286 284 283 278 281 277 277 277 277 279 277 274 274 276 277 278 277 274 273 272 271
286 267 249 240 233 234 233 239 250 274 294 308 311 311 303 299 296 287 279 276 284 290 291 289 283 286 287 285 282 282 280 279 281 277 277 278 283 283 281 281 279 276 275
279 261 247 243 237 239 242 251 262 267 286 296 304 303 300 294 293 286 282 278 280 284 287 283 284 287 289 289 288 286 285 284 283 283 281 282 286 285 285 285 284 282 281
273 259 250 242 243 242 251 254 248 272 284 291 296 300 295 289 285 286 284 277 284 285 287 288 286 290 291 288 293 293 290 288 287 286 287 285 288 287 288 287 286 286 283
275 249 250 239 245 247 254 239 261 273 285 288 290 290 291 284 285 285 287 286 288 290 290 292 294 297 298 297 296 297 296 295 293 291 291 290 290 291 291 290 288 288 286
264 254 245 233 229 231 242 257 271 279 279 280 282 282 285 280 282 284 284 287 288 290 293 294 296 297 297 297 298 300 301 298 297 295 294 294 294 294 294 293 290 288 287
256 254 249 244 244 249 255 266 277 276 278 280 281 277 280 280 279 279 284 288 292 292 295 298 299 300 302 301 299 302 304 303 300 299 298 297 297 297 296 294 292 290 289
252 250 245 237 239 247 254 260 266 275 280 282 278 275 274 272 276 283 289 290 293 298 301 303 303 303 303 303 303 303 303 303 300 300 299 300 300 300 299 298 295 294 293
247 243 235 230 236 250 263 269 271 273 275 275 274 270 272 276 282 289 293 290 296 302 304 306 305 304 304 305 305 305 304 304 304 302 303 304 303 302 301 299 298 297 296
250 247 246 245 253 261 269 272 276 278 277 275 273 272 274 279 288 296 297 292 296 301 304 305 306 307 308 308 308 307 307 305 305 306 307 307 306 304 303 302 301 302 300
258 258 254 257 261 266 270 272 271 273 277 279 276 270 270 278 286 296 298 299 301 303 302 304 305 307 308 310 312 310 311 307 306 309 310 311 310 308 307 305 306 305 304
264 261 261 266 264 264 266 273 271 270 277 279 274 270 271 281 288 293 298 303 304 304 305 307 304 307 308 310 313 314 312 311 312 313 315 317 316 313 311 312 315 316 312
266 263 263 269 269 269 271 274 266 266 271 274 272 266 273 284 288 295 300 304 305 306 307 307 309 309 309 313 315 317 318 314 315 317 317 317 320 318 315 319 323 328 337
265 263 264 266 268 275 277 278 273 267 261 268 273 269 280 284 292 298 302 304 305 306 308 311 312 314 313 316 317 318 320 320 321 322 322 321 323 322 324 328 331 336 339
268 269 260 265 268 274 276 278 274 263 264 267 274 278 286 290 296 299 302 303 303 302 304 305 310 316 317 319 322 324 325 326 326 327 329 329 331 334 333 333 336 338 344
278 283 264 260 263 270 271 273 270 271 270 271 277 283 287 291 292 296 299 300 302 300 298 298 306 314 317 322 327 327 326 327 331 333 335 335 333 340 348 345 342 349 4
277 276 271 266 266 268 269 271 271 274 277 278 280 283 285 286 289 291 294 295 297 298 292 291 298 306 306 308 318 325 328 328 332 336 339 341 347 348 350 346 341 341 337